Volver al catálogo

SL-16 DEB

ActivoLEO
NORAD 22613·DEBRIS·🇷🇺 Russia

Lanzado Mar 26, 1993 desde Baikonur Cosmodrome

Loading…

Próximos Pases (próximas 24 horas)

TLE

ActualizadoSource: Space-Track

Época: Sep 14, 2026, 12:23 UTC

1 22613U 93016X   26257.51620818  .00000270  00000-0  27259-3 0  9993
2 22613  70.9982  86.2446 0192707  37.2541 344.5958 13.77673655677276

Sigue SL-16 DEB en tiempo real con AllMySat

Download on the App Store